BD-17

Last updated on Thu May 09 2019 03:02:56 GMT+0000 (Coordinated Universal Time)

1 40549U 15019A 19128.27434575 -.00000164 00000-0 00000+0 0 9997 2 40549 53.6105 325.8693 0037864 187.2698 266.4927 1.00261708 15040
UTC large
Height (km)
Speed (km/s)
/
Latitude / Longitude
Inclination (degrees)
Orbital Period (minutes)
Azimuth
Elevation
Range (km)
Doppler Factor

Next 0 passes for location: London (51.5072 / 0.1276)

Sorry there are no passes over London.
BD-17